Temp
72 70 69 70 70 69 69 70 70 69 69 69 69 70 69 68 66 63 64 64 67 70 72 73 74 72 72 74 73 72 73 73 74 74 75 74 74 72 69 70 70 70 70 70 70 70 71 71 71 72 72 72 72 73 73 72 72 72 72 73 73 73 73 72 72 72 72 71 71 71 71 72 73 73
70 71 70 70 71 70 69 70 70 69 69 68 68 69 69 69 68 65 65 65 65 68 68 71 73 70 72 72 73 72 73 72 75 74 73 73 74 70 69 69 70 69 69 69 69 69 69 70 70 70 69 70 70 71 71 71 71 72 72 72 73 73 72 71 71 71 71 71 71 71 71 72 72 72
70 70 70 69 70 70 70 70 70 69 69 69 68 68 68 68 70 66 66 65 67 68 71 70 72 73 71 72 73 73 72 72 75 74 74 74 72 70 72 69 69 68 68 68 67 67 66 67 68 68 68 68 69 70 70 71 71 71 71 72 72 72 72 71 70 71 71 71 71 70 71 71 71 71
70 70 70 69 69 69 69 69 69 69 69 69 68 68 68 68 68 67 66 66 68 67 69 69 70 70 72 71 73 73 72 71 73 74 73 73 72 74 74 71 69 68 67 67 66 65 65 65 67 67 68 68 69 70 70 69 69 70 70 70 71 71 71 69 69 70 70 71 70 70 70 70 71 71
70 70 70 69 69 69 69 69 69 69 69 69 69 68 68 68 67 68 67 66 65 67 67 67 70 70 70 73 71 72 72 73 73 73 73 73 73 73 73 73 70 68 67 66 65 65 65 65 66 66 67 68 68 69 70 69 68 69 68 68 68 68 69 68 67 69 70 70 70 70 70 70 70 70
70 70 70 70 69 69 70 69 69 70 69 69 69 68 69 68 67 68 68 66 67 67 67 67 68 69 70 72 71 72 74 74 72 73 72 72 73 73 74 73 74 69 67 65 64 64 64 65 65 66 66 67 67 68 68 67 66 66 66 65 66 66 65 65 66 67 67 68 69 69 69 69 69 70
70 70 70 70 70 69 69 69 70 70 69 70 70 69 69 69 68 68 69 67 66 66 67 68 69 70 70 71 73 72 71 72 72 71 73 73 73 73 73 73 73 70 68 66 65 65 64 65 65 65 66 65 65 65 63 63 64 63 63 63 64 64 64 64 64 66 66 67 68 69 69 69 69 69
70 70 70 70 70 70 69 69 68 68 69 69 69 69 68 69 69 68 68 69 70 67 67 66 68 69 69 70 70 70 71 72 71 72 72 71 71 72 72 72 72 71 67 66 65 65 64 64 64 63 63 63 62 61 60 61 62 62 62 62 62 62 62 62 62 64 64 64 65 66 67 68 67 66
70 70 71 71 70 70 69 69 69 69 68 69 69 69 69 69 69 68 68 68 68 68 67 68 67 67 68 70 70 70 71 71 70 70 70 71 71 71 72 72 71 69 66 66 66 65 64 64 64 63 63 63 62 62 62 61 61 61 60 60 61 61 62 62 61 62 62 62 63 62 63 64 65 65
71 71 71 71 70 70 70 70 69 69 69 69 69 69 69 69 69 68 68 68 68 67 68 67 68 66 68 69 70 70 70 70 70 70 70 70 70 69 70 72 72 72 72 73 72 68 67 66 64 63 63 63 62 62 61 61 61 60 59 57 57 58 59 59 60 61 60 61 62 62 62 63 63 63
72 72 72 71 71 70 71 71 70 69 69 69 69 69 69 69 69 68 68 68 67 67 67 66 66 66 67 67 68 68 67 68 68 68 68 69 70 69 69 69 71 72 72 70 68 69 70 68 69 64 60 61 61 62 61 60 60 60 59 57 57 57 57 57 58 59 59 59 60 60 59 59 61 62
72 72 72 73 71 71 72 72 72 71 70 70 69 70 70 69 68 68 68 67 67 67 67 66 66 65 65 65 66 66 67 67 67 67 68 67 68 68 68 68 68 69 69 70 72 69 68 68 66 62 63 64 64 63 64 65 65 63 60 59 59 60 58 58 59 59 58 57 57 57 57 57 59 60
72 72 72 73 72 72 72 72 72 72 72 70 69 70 70 69 68 68 68 67 67 66 66 66 66 65 64 64 65 65 64 65 67 66 66 67 68 67 66 67 68 68 68 69 69 69 69 69 69 69 69 69 68 68 66 67 67 65 61 60 61 61 60 58 58 59 58 58 58 57 57 58 59 60
71 72 72 72 73 72 73 72 71 70 71 72 73 72 70 70 68 68 67 67 67 67 66 67 66 64 64 65 65 65 66 66 65 65 64 64 66 66 66 66 67 67 67 67 68 69 69 67 67 68 68 69 68 69 69 69 68 65 62 61 61 61 61 59 59 58 58 58 58 57 56 57 58 59
71 71 71 71 72 72 73 73 72 72 72 72 71 71 71 71 71 69 68 67 67 67 67 68 66 65 64 66 66 65 65 64 63 62 64 64 64 63 63 62 65 67 67 67 66 67 69 67 66 67 67 68 68 69 69 66 64 62 62 61 61 61 60 61 61 60 58 57 57 57 56 57 57 58
71 71 71 71 71 72 71 72 72 73 72 70 71 70 69 69 69 70 71 69 68 68 67 67 67 66 65 65 64 63 63 63 62 62 62 62 62 62 62 63 63 66 66 66 65 65 68 67 66 65 67 68 68 69 65 63 63 62 61 61 61 61 61 61 61 61 61 60 59 59 59 59 59 59
71 70 70 70 70 71 71 70 71 73 73 70 69 69 69 69 68 66 67 69 72 71 68 66 65 66 66 64 64 64 63 64 63 64 62 61 62 63 63 64 65 67 66 66 63 63 67 67 65 65 67 68 68 68 66 64 63 62 61 61 62 61 61 61 61 61 60 60 59 59 58 58 58 58
69 69 69 69 70 69 69 69 70 71 72 73 72 71 71 72 71 67 65 64 66 68 68 66 65 67 67 66 66 66 66 64 64 63 62 63 62 63 63 65 66 67 66 65 63 61 65 67 65 64 67 68 67 67 65 62 61 61 61 61 60 60 60 60 60 59 59 59 59 58 57 56 56 56
70 70 71 71 70 68 68 68 70 70 71 71 71 71 71 71 71 70 70 70 69 68 68 67 68 68 68 68 68 68 67 66 65 65 65 66 65 65 64 64 64 66 66 64 62 60 64 66 64 65 66 68 67 68 63 61 60 60 60 60 60 60 59 59 59 59 58 58 58 57 56 56 55 55
71 72 72 71 70 68 67 67 66 70 72 71 70 69 69 68 68 69 69 66 67 70 69 69 69 66 66 64 66 66 66 66 66 66 66 64 63 63 63 62 65 65 66 64 63 61 62 66 64 64 67 66 64 66 66 63 60 59 59 59 59 58 57 57 58 58 58 58 58 57 56 54 53 53
71 72 72 71 69 69 69 66 62 65 71 70 70 68 68 67 68 68 66 62 62 63 61 61 61 61 60 59 58 57 57 63 65 65 63 62 64 62 61 62 62 64 66 65 64 63 61 64 63 64 65 65 64 65 66 67 62 60 58 58 58 57 57 57 56 57 57 57 57 57 57 55 54 54
71 72 72 72 71 69 69 63 61 62 68 69 69 69 68 66 66 66 66 66 66 61 60 59 59 58 59 58 57 57 56 56 59 64 63 65 65 63 62 61 62 64 64 65 65 61 62 63 62 61 63 62 63 64 65 65 64 62 59 58 58 57 58 58 57 56 56 57 57 56 55 54 54 61
71 70 72 72 70 70 67 60 60 61 66 69 69 68 68 66 65 66 65 65 65 65 65 64 64 64 62 63 64 65 59 56 61 66 67 66 64 63 63 62 61 60 62 65 64 61 62 61 63 61 60 59 63 64 64 65 65 65 65 66 65 60 59 58 57 55 55 55 56 56 55 54 55 63
69 70 70 69 63 62 60 58 58 58 60 69 69 70 68 66 65 66 66 66 66 65 64 65 65 66 65 65 66 66 66 64 65 65 66 66 65 63 63 63 62 60 62 65 64 62 62 62 61 62 61 57 56 61 63 63 64 65 65 64 64 62 62 61 59 58 55 55 55 55 55 54 54 63
69 69 69 71 63 58 58 56 55 54 56 63 69 68 67 68 67 64 66 66 66 65 65 65 64 65 65 65 65 65 65 66 67 66 64 65 66 65 64 63 62 63 64 66 62 62 60 61 60 60 59 59 59 59 61 62 63 63 64 64 63 64 64 65 63 65 60 57 55 53 53 53 54 58
69 69 68 69 63 57 57 56 53 52 54 59 67 67 60 58 58 64 67 67 67 65 65 65 64 64 64 64 64 64 65 66 66 66 65 65 65 66 67 64 62 60 62 64 59 62 60 59 61 60 59 57 59 60 58 59 62 63 64 64 64 63 64 64 64 64 64 66 66 62 63 58 56 55
69 68 68 69 62 56 54 52 51 51 52 58 65 55 53 55 59 64 66 66 65 64 63 63 62 62 62 62 63 63 64 65 64 66 66 65 64 64 65 64 65 64 65 65 65 63 60 59 61 59 58 59 56 57 57 57 59 63 62 64 64 64 65 65 64 64 65 65 66 59 56 56 55 55
70 67 68 66 57 54 50 50 50 51 54 62 53 51 55 57 61 65 64 63 63 62 62 61 61 61 62 62 62 62 64 65 63 64 64 63 63 63 63 63 63 64 64 63 63 62 60 59 60 61 59 57 55 54 54 60 60 60 59 63 64 65 65 65 64 64 65 65 65 66 66 66 67 65
69 63 58 55 53 52 49 50 51 52 53 53 51 52 55 62 65 64 63 62 62 61 61 61 62 61 62 62 63 63 63 63 62 62 64 63 63 62 62 62 62 62 63 64 63 62 61 60 59 60 58 57 55 57 56 56 58 59 60 59 59 63 64 64 64 63 63 64 64 65 64 65 65 66
59 56 54 52 51 51 53 56 59 61 59 54 54 54 58 64 63 63 63 61 61 61 62 62 61 62 62 62 62 62 61 61 62 63 63 63 64 63 62 62 63 63 63 62 63 61 60 59 59 58 57 57 58 56 57 57 56 59 59 59 60 62 63 63 63 64 63 62 63 64 65 66 65 65
60 56 57 57 56 56 56 59 59 59 56 56 57 59 61 62 62 62 62 62 62 62 62 62 62 61 62 61 60 61 60 61 62 62 62 62 63 62 60 59 60 61 62 62 62 61 61 61 60 58 56 57 59 58 58 58 56 57 59 60 60 55 60 62 62 63 63 63 63 64 64 64 65 65
61 60 56 55 59 59 61 61 60 59 60 59 59 58 58 59 60 60 61 61 61 61 62 62 61 59 58 59 61 61 61 62 62 61 62 61 62 61 59 58 59 60 60 60 61 62 61 61 60 59 58 57 55 57 58 57 56 57 58 59 60 61 62 61 62 62 63 62 61 61 62 63 64 65
61 60 60 59 59 60 60 60 59 58 58 57 57 56 56 57 58 59 60 59 58 59 59 60 60 60 59 60 61 61 61 61 61 59 59 59 59 58 58 58 59 58 58 59 60 60 61 60 60 59 58 58 58 57 55 54 57 59 58 59 59 59 61 63 62 62 62 60 59 60 60 62 64 64
61 60 60 60 60 60 60 60 59 59 59 58 56 55 54 56 56 57 59 60 59 58 59 60 60 59 59 60 60 60 61 60 59 58 58 58 58 58 58 58 58 58 57 57 58 59 59 58 58 58 59 59 59 58 57 55 55 58 59 59 59 58 60 61 62 61 60 59 58 57 59 60 63 64
61 60 60 59 60 60 61 61 61 60 60 60 60 58 57 58 58 58 59 59 59 59 60 59 60 60 60 60 60 60 60 61 61 58 58 59 57 57 58 57 58 57 58 57 58 58 57 56 56 56 57 58 57 59 60 59 57 58 59 59 60 59 59 61 61 60 60 59 60 56 57 59 60 63
60 61 60 59 60 60 61 61 61 61 62 61 61 60 59 59 60 60 60 59 59 59 59 59 59 59 59 60 60 59 60 59 60 59 58 58 58 58 57 57 57 57 57 57 57 58 57 57 56 54 54 54 54 54 57 61 60 59 57 57 59 58 59 59 59 60 59 59 60 58 55 55 58 60
60 61 61 60 60 61 62 63 62 62 62 61 61 61 61 61 60 60 60 58 59 59 60 60 60 60 59 59 58 58 59 59 60 59 59 58 57 57 57 57 57 56 56 57 57 57 56 55 56 55 53 53 53 52 55 60 57 58 59 56 56 59 58 57 57 57 59 59 58 58 57 56 56 58
60 61 61 61 62 62 63 62 61 60 60 61 61 61 61 62 61 59 58 58 59 59 59 60 60 59 59 59 60 59 59 59 59 58 58 57 57 56 56 56 56 56 56 56 56 56 56 55 55 56 54 52 52 52 53 57 58 58 57 57 55 56 57 55 55 56 57 59 58 59 59 56 56 57
61 61 61 61 61 62 62 61 61 61 60 61 61 61 60 59 59 58 58 60 60 60 59 59 59 59 59 60 60 60 59 57 57 57 57 57 57 56 56 56 56 56 55 56 56 57 56 56 57 56 55 53 52 53 54 52 53 59 59 54 55 54 56 56 55 56 57 56 57 58 57 58 58 58
61 61 62 62 61 62 62 61 61 61 60 60 61 60 59 58 59 59 59 58 58 58 60 60 59 57 59 59 59 59 58 58 58 58 58 58 57 56 56 56 55 55 54 55 56 57 56 57 57 57 56 56 56 57 57 56 55 56 58 58 52 54 58 57 55 55 54 56 56 54 53 54 53 56
60 61 61 62 61 61 61 61 61 60 60 59 59 57 59 59 59 59 60 59 59 58 59 59 59 59 60 58 57 59 58 57 58 58 57 57 56 56 55 54 55 55 54 55 55 55 57 58 58 56 56 57 57 56 55 55 56 59 60 62 56 54 53 54 56 55 54 55 53 51 49 49 50 51
61 61 61 61 61 61 61 60 59 60 59 59 59 59 57 58 59 58 58 57 57 58 60 59 58 58 59 57 57 56 58 58 57 56 57 57 57 55 54 54 55 55 54 54 55 56 58 58 57 56 56 56 55 54 54 55 55 57 58 59 61 57 56 54 53 54 56 54 52 49 48 50 51 48
61 60 59 60 60 60 60 59 59 59 59 59 59 58 58 59 59 59 59 58 58 60 60 59 58 58 58 58 56 57 58 58 57 57 57 56 56 56 56 56 55 55 55 55 56 56 56 56 56 56 56 55 54 54 53 55 56 56 57 58 58 59 60 57 56 54 54 54 53 52 51 48 45 41
60 59 59 59 59 59 59 59 59 59 59 59 59 58 60 59 59 59 59 59 59 60 59 59 57 57 57 57 56 56 57 58 57 56 56 56 55 56 56 55 54 55 55 55 55 56 57 56 56 56 54 55 55 53 54 55 56 57 56 56 56 56 55 57 58 56 56 56 55 54 54 54 53 52
60 60 59 59 59 59 59 59 59 59 59 59 59 59 59 60 60 59 58 58 59 58 58 58 57 56 56 56 55 56 56 54 54 56 56 56 55 54 54 55 54 54 54 54 53 54 55 55 56 56 55 55 55 53 54 55 55 55 55 55 54 55 55 55 54 53 54 55 55 54 53 53 53 52
MSLP
1019.14 1019.34 1019.46 1019.62 1019.74 1019.82 1019.90 1019.98 1020.02 1020.10 1020.26 1020.30 1020.30 1020.34 1020.70 1021.10 1021.90 1022.54 1022.66 1022.30 1021.98 1021.38 1021.18 1021.34 1020.90 1020.54 1020.50 1020.42 1020.34 1020.42 1020.38 1020.34 1020.38 1020.46 1020.54 1020.62 1020.66 1020.70 1020.74 1020.74 1020.74 1020.70 1020.66 1020.62 1020.62 1020.62 1020.66 1020.66 1020.66 1020.66 1020.62 1020.58 1020.58 1020.54 1020.50 1020.50 1020.50 1020.50 1020.50 1020.50 1020.46 1020.42 1020.42 1020.42 1020.46 1020.50 1020.54 1020.58 1020.62 1020.62 1020.62 1020.58 1020.54 1020.50
1019.06 1019.14 1019.34 1019.50 1019.66 1019.66 1019.82 1019.82 1019.82 1019.98 1020.02 1020.18 1020.26 1020.34 1020.38 1020.54 1021.22 1021.66 1022.30 1022.10 1021.50 1021.22 1021.14 1021.02 1020.94 1020.66 1020.58 1020.46 1020.42 1020.34 1020.30 1020.22 1020.26 1020.34 1020.42 1020.46 1020.42 1020.42 1020.50 1020.46 1020.46 1020.46 1020.42 1020.38 1020.34 1020.30 1020.30 1020.30 1020.34 1020.42 1020.46 1020.46 1020.46 1020.42 1020.34 1020.30 1020.30 1020.30 1020.26 1020.26 1020.22 1020.22 1020.22 1020.22 1020.26 1020.26 1020.26 1020.34 1020.38 1020.38 1020.38 1020.34 1020.34 1020.30
1018.90 1019.10 1019.26 1019.34 1019.46 1019.50 1019.62 1019.70 1019.78 1019.90 1019.98 1019.98 1020.18 1020.34 1020.50 1020.54 1020.62 1021.14 1021.50 1022.18 1021.26 1021.14 1021.02 1020.82 1020.54 1020.58 1020.50 1020.42 1020.42 1020.34 1020.30 1020.26 1020.18 1020.22 1020.22 1020.18 1020.10 1020.14 1020.10 1020.14 1020.14 1020.14 1020.14 1020.14 1020.14 1020.10 1020.10 1020.06 1020.06 1020.10 1020.14 1020.14 1020.14 1020.14 1020.10 1020.10 1020.06 1020.02 1020.02 1020.02 1020.02 1019.98 1019.98 1020.02 1020.02 1020.06 1020.06 1020.10 1020.14 1020.14 1020.14 1020.10 1020.10 1020.06
1018.70 1018.90 1019.10 1019.18 1019.26 1019.34 1019.46 1019.62 1019.74 1019.78 1019.86 1019.90 1020.10 1020.26 1020.38 1020.50 1020.62 1020.74 1021.14 1021.62 1021.34 1021.02 1020.86 1020.66 1020.58 1020.50 1020.46 1020.38 1020.46 1020.34 1020.30 1020.30 1020.18 1020.14 1020.10 1019.98 1019.98 1019.94 1019.90 1019.86 1019.86 1019.86 1019.90 1019.90 1019.90 1019.90 1019.94 1019.90 1019.90 1019.90 1019.90 1019.90 1019.86 1019.86 1019.82 1019.78 1019.78 1019.78 1019.74 1019.74 1019.78 1019.78 1019.78 1019.82 1019.86 1019.86 1019.86 1019.86 1019.90 1019.90 1019.90 1019.86 1019.82 1019.82
1018.50 1018.66 1018.86 1018.98 1019.06 1019.14 1019.34 1019.42 1019.54 1019.74 1019.78 1019.94 1020.02 1020.22 1020.34 1020.50 1020.70 1020.70 1021.06 1021.38 1021.34 1021.02 1020.90 1020.90 1020.66 1020.54 1020.58 1020.58 1020.38 1020.42 1020.34 1020.26 1020.14 1020.02 1019.98 1019.98 1019.98 1019.94 1019.90 1019.82 1019.78 1019.82 1019.78 1019.78 1019.70 1019.70 1019.66 1019.66 1019.66 1019.66 1019.66 1019.66 1019.66 1019.62 1019.62 1019.58 1019.54 1019.50 1019.50 1019.50 1019.54 1019.58 1019.62 1019.66 1019.70 1019.70 1019.66 1019.66 1019.66 1019.62 1019.62 1019.62 1019.62 1019.58
1018.34 1018.50 1018.70 1018.82 1018.98 1019.06 1019.14 1019.22 1019.42 1019.50 1019.74 1019.86 1020.02 1020.18 1020.26 1020.38 1020.54 1020.50 1020.70 1021.06 1021.18 1021.26 1021.02 1020.94 1020.70 1020.70 1020.58 1020.82 1020.30 1020.42 1020.30 1020.18 1020.06 1020.06 1020.02 1019.94 1019.90 1019.90 1019.86 1019.90 1019.78 1019.78 1019.78 1019.70 1019.66 1019.54 1019.46 1019.42 1019.38 1019.34 1019.34 1019.38 1019.38 1019.42 1019.42 1019.42 1019.42 1019.38 1019.34 1019.30 1019.34 1019.38 1019.42 1019.46 1019.50 1019.46 1019.46 1019.46 1019.46 1019.42 1019.38 1019.34 1019.34 1019.34
1018.18 1018.42 1018.54 1018.66 1018.74 1018.94 1019.14 1019.22 1019.22 1019.34 1019.50 1019.66 1019.82 1019.94 1020.06 1020.18 1020.22 1020.34 1020.34 1020.66 1021.06 1021.10 1021.06 1020.78 1020.86 1020.70 1020.58 1020.54 1020.26 1020.06 1020.02 1019.98 1020.02 1020.22 1020.02 1019.90 1019.86 1019.86 1019.90 1019.94 1019.82 1019.74 1019.70 1019.62 1019.54 1019.42 1019.34 1019.26 1019.22 1019.18 1019.14 1019.14 1019.14 1019.14 1019.18 1019.22 1019.26 1019.26 1019.26 1019.26 1019.26 1019.26 1019.26 1019.26 1019.26 1019.26 1019.22 1019.22 1019.18 1019.14 1019.10 1019.10 1019.06 1019.06
1017.98 1018.10 1018.38 1018.42 1018.54 1018.70 1018.94 1019.06 1019.18 1019.22 1019.26 1019.50 1019.62 1019.74 1019.86 1019.90 1020.02 1020.10 1020.18 1020.18 1020.38 1020.62 1020.98 1020.94 1020.74 1020.46 1020.50 1020.30 1020.02 1019.98 1019.98 1020.10 1020.18 1020.10 1019.94 1019.90 1019.94 1019.82 1019.78 1019.78 1019.78 1019.62 1019.58 1019.54 1019.46 1019.38 1019.30 1019.26 1019.22 1019.14 1019.10 1019.06 1019.06 1019.06 1019.10 1019.10 1019.10 1019.10 1019.10 1019.14 1019.14 1019.14 1019.10 1019.02 1018.94 1018.86 1018.82 1018.90 1018.98 1018.90 1018.86 1018.82 1018.82 1018.82
1017.54 1017.74 1017.86 1017.94 1018.26 1018.46 1018.70 1018.82 1018.94 1019.02 1019.18 1019.22 1019.38 1019.50 1019.62 1019.70 1019.74 1019.90 1020.02 1020.06 1020.26 1020.58 1020.82 1020.78 1020.54 1020.34 1020.26 1020.06 1019.98 1019.94 1020.22 1020.22 1020.18 1020.06 1020.10 1019.94 1019.82 1019.62 1019.50 1019.50 1019.46 1019.50 1019.46 1019.38 1019.34 1019.30 1019.26 1019.22 1019.18 1019.14 1019.10 1019.06 1019.06 1019.02 1018.98 1018.94 1018.90 1018.90 1018.94 1018.98 1018.98 1018.98 1018.94 1018.90 1018.82 1018.74 1018.62 1018.54 1018.50 1018.58 1018.66 1018.62 1018.62 1018.62
1017.02 1017.26 1017.42 1017.58 1017.86 1018.10 1018.30 1018.38 1018.50 1018.62 1018.78 1018.98 1019.14 1019.22 1019.30 1019.38 1019.50 1019.66 1019.82 1019.94 1020.22 1020.46 1020.50 1020.58 1020.50 1020.30 1020.26 1020.18 1019.98 1019.94 1020.06 1020.26 1020.26 1020.06 1019.82 1019.74 1019.66 1019.62 1019.54 1019.38 1019.30 1019.26 1019.26 1019.30 1019.18 1019.14 1019.10 1019.06 1019.10 1019.10 1019.10 1019.10 1019.10 1019.10 1019.06 1019.02 1018.94 1018.86 1018.82 1018.78 1018.82 1018.82 1018.82 1018.78 1018.74 1018.62 1018.46 1018.38 1018.30 1018.26 1018.22 1018.26 1018.30 1018.34
1016.50 1016.74 1016.98 1017.22 1017.42 1017.58 1017.62 1017.78 1017.94 1018.18 1018.38 1018.50 1018.66 1018.70 1018.86 1018.98 1019.18 1019.42 1019.58 1019.78 1020.10 1020.30 1020.46 1020.46 1020.42 1020.38 1020.14 1020.22 1020.26 1020.06 1019.98 1019.98 1019.98 1020.10 1020.10 1020.02 1019.66 1019.58 1019.54 1019.54 1019.34 1019.26 1019.22 1019.14 1019.18 1019.14 1019.10 1019.02 1018.94 1018.90 1018.94 1018.94 1018.94 1018.94 1018.94 1018.94 1018.94 1018.86 1018.78 1018.70 1018.58 1018.54 1018.50 1018.46 1018.38 1018.30 1018.22 1018.18 1018.10 1018.06 1018.02 1017.94 1017.86 1017.86
1016.10 1016.34 1016.54 1016.66 1016.82 1016.90 1016.94 1017.06 1017.18 1017.46 1017.82 1018.02 1018.22 1018.26 1018.42 1018.62 1018.94 1019.18 1019.34 1019.66 1019.90 1020.18 1020.26 1020.30 1020.30 1020.30 1020.34 1020.22 1020.18 1020.14 1019.94 1020.02 1020.02 1020.06 1020.22 1020.26 1019.90 1019.70 1019.54 1019.54 1019.62 1019.42 1019.38 1019.34 1019.14 1019.06 1019.06 1019.02 1018.98 1018.98 1018.90 1018.78 1018.70 1018.66 1018.62 1018.54 1018.50 1018.50 1018.50 1018.46 1018.38 1018.34 1018.22 1018.10 1017.98 1017.90 1017.86 1017.82 1017.82 1017.78 1017.74 1017.70 1017.62 1017.54
1015.90 1016.06 1016.14 1016.22 1016.26 1016.30 1016.38 1016.46 1016.58 1016.78 1016.94 1017.46 1017.82 1017.90 1018.02 1018.30 1018.62 1018.82 1019.06 1019.30 1019.62 1019.78 1019.94 1019.98 1020.02 1020.26 1020.38 1020.26 1020.22 1020.22 1020.22 1020.14 1020.26 1020.34 1020.34 1020.26 1019.90 1019.78 1019.74 1019.58 1019.34 1019.30 1019.30 1019.14 1019.14 1019.06 1018.98 1019.10 1019.06 1018.98 1018.94 1018.74 1018.70 1018.54 1018.46 1018.34 1018.22 1018.18 1018.10 1018.06 1017.98 1017.94 1017.90 1017.82 1017.70 1017.58 1017.50 1017.46 1017.42 1017.42 1017.38 1017.34 1017.30 1017.26
1015.74 1015.74 1015.82 1015.82 1015.86 1015.98 1016.10 1016.30 1016.46 1016.58 1016.70 1016.74 1016.82 1017.14 1017.58 1017.90 1018.26 1018.54 1018.78 1019.06 1019.18 1019.34 1019.58 1019.66 1019.86 1020.18 1020.18 1020.06 1020.06 1020.06 1020.18 1020.34 1020.26 1020.30 1020.42 1020.54 1020.02 1019.98 1019.82 1019.62 1019.22 1019.02 1019.10 1019.22 1019.22 1018.90 1018.74 1018.90 1018.86 1018.74 1018.70 1018.50 1018.54 1018.46 1018.30 1018.18 1018.14 1018.06 1018.02 1017.90 1017.78 1017.66 1017.50 1017.38 1017.34 1017.30 1017.26 1017.18 1017.14 1017.10 1017.10 1017.06 1016.98 1016.94
1015.38 1015.42 1015.46 1015.50 1015.58 1015.78 1016.14 1016.30 1016.50 1016.58 1016.58 1016.58 1016.62 1016.62 1016.74 1016.94 1017.42 1018.02 1018.42 1018.54 1018.66 1019.02 1019.10 1019.18 1019.50 1019.70 1019.74 1019.62 1019.74 1020.10 1020.14 1020.02 1020.14 1020.34 1020.26 1020.26 1020.22 1020.30 1020.22 1020.02 1019.30 1018.94 1019.02 1019.30 1019.38 1019.06 1018.66 1018.70 1018.90 1018.74 1018.62 1018.46 1018.38 1018.22 1018.10 1018.02 1017.98 1017.94 1017.86 1017.74 1017.62 1017.50 1017.34 1017.22 1017.10 1017.02 1017.02 1017.02 1016.98 1016.94 1016.86 1016.78 1016.74 1016.66
1014.78 1014.86 1014.86 1014.82 1015.02 1015.30 1016.06 1016.94 1017.14 1016.90 1016.58 1016.46 1016.38 1016.38 1016.50 1016.70 1016.78 1016.82 1017.22 1017.78 1018.34 1018.58 1018.82 1019.02 1019.26 1019.50 1019.66 1019.78 1019.66 1019.62 1019.58 1019.50 1019.66 1020.02 1020.06 1020.06 1020.06 1019.98 1019.98 1019.90 1019.86 1019.18 1019.02 1019.30 1019.42 1019.18 1018.54 1018.50 1018.74 1018.82 1018.50 1018.30 1018.18 1018.02 1017.90 1017.78 1017.66 1017.58 1017.50 1017.38 1017.30 1017.18 1017.14 1017.06 1017.02 1016.94 1016.86 1016.82 1016.74 1016.70 1016.58 1016.50 1016.42 1016.38
1014.02 1013.90 1013.90 1014.26 1014.78 1015.42 1016.50 1017.18 1017.46 1017.26 1016.82 1016.42 1016.26 1016.22 1016.34 1016.46 1016.54 1016.66 1016.66 1016.70 1017.06 1017.54 1018.26 1018.90 1019.14 1019.06 1019.10 1019.30 1019.18 1018.90 1018.94 1019.10 1019.42 1019.50 1019.62 1019.58 1019.62 1019.58 1019.66 1019.54 1019.42 1019.14 1019.10 1019.30 1019.38 1019.26 1018.66 1018.58 1018.70 1018.74 1018.30 1018.10 1017.94 1017.78 1017.54 1017.42 1017.34 1017.26 1017.18 1017.06 1016.98 1016.94 1016.86 1016.82 1016.74 1016.66 1016.62 1016.50 1016.46 1016.38 1016.34 1016.30 1016.26 1016.22
1012.58 1012.38 1013.18 1014.02 1014.70 1015.38 1015.82 1016.26 1016.62 1016.90 1016.82 1016.46 1016.34 1016.38 1016.42 1016.38 1016.34 1016.38 1016.50 1016.74 1016.94 1017.14 1017.66 1018.10 1018.38 1018.18 1018.42 1018.58 1018.42 1018.46 1018.54 1018.86 1019.10 1019.22 1019.26 1019.26 1019.38 1019.50 1019.38 1019.06 1019.10 1018.98 1019.02 1019.18 1019.18 1019.18 1018.74 1018.46 1018.58 1018.54 1018.06 1017.82 1017.78 1017.62 1017.34 1017.22 1017.18 1017.06 1016.94 1016.86 1016.78 1016.70 1016.62 1016.54 1016.46 1016.38 1016.30 1016.22 1016.14 1016.06 1015.94 1015.86 1015.78 1015.78
1012.06 1012.86 1013.18 1013.66 1014.42 1014.94 1015.30 1015.58 1015.82 1016.14 1016.30 1016.30 1016.22 1016.22 1016.26 1016.22 1016.26 1016.38 1016.54 1016.70 1016.86 1017.06 1017.22 1017.42 1017.50 1017.62 1017.90 1017.98 1018.10 1018.26 1018.30 1018.38 1018.54 1018.70 1018.78 1018.90 1019.02 1019.02 1018.98 1019.02 1019.02 1018.94 1018.70 1018.82 1019.10 1019.14 1018.54 1018.30 1018.42 1018.14 1017.86 1017.70 1017.66 1017.38 1017.22 1017.18 1017.06 1016.90 1016.82 1016.70 1016.62 1016.50 1016.38 1016.26 1016.18 1016.10 1016.02 1015.90 1015.82 1015.70 1015.62 1015.54 1015.46 1015.38
1011.90 1012.18 1012.66 1013.30 1013.90 1014.42 1014.70 1014.82 1015.22 1015.42 1015.66 1015.94 1016.06 1016.10 1016.10 1016.22 1016.18 1016.18 1016.18 1016.26 1016.42 1016.54 1016.62 1016.74 1016.98 1017.30 1017.38 1017.42 1017.82 1018.10 1018.22 1018.34 1018.38 1018.46 1018.62 1018.78 1018.90 1019.02 1019.14 1019.22 1018.94 1018.82 1018.46 1018.50 1018.74 1018.98 1018.62 1018.14 1018.26 1017.90 1017.62 1017.66 1017.58 1017.26 1017.10 1016.98 1016.90 1016.78 1016.70 1016.58 1016.46 1016.30 1016.18 1016.02 1015.86 1015.74 1015.62 1015.54 1015.42 1015.30 1015.18 1015.10 1015.02 1014.98
1011.70 1011.90 1012.22 1012.78 1013.34 1013.74 1014.10 1014.50 1014.94 1015.02 1015.10 1015.46 1015.66 1015.86 1016.02 1016.14 1016.26 1016.34 1016.34 1016.22 1016.18 1016.26 1016.46 1016.74 1016.90 1017.14 1017.34 1017.46 1017.74 1017.98 1018.10 1018.14 1018.22 1018.54 1018.86 1018.78 1018.74 1019.06 1019.18 1018.98 1018.94 1018.70 1018.42 1018.42 1018.54 1018.66 1018.54 1018.02 1018.02 1017.78 1017.58 1017.54 1017.34 1017.10 1016.90 1016.70 1016.62 1016.62 1016.54 1016.46 1016.30 1016.10 1015.90 1015.70 1015.54 1015.38 1015.26 1015.14 1015.02 1014.86 1014.74 1014.62 1014.54 1014.50
1011.38 1011.54 1011.82 1012.22 1012.70 1013.14 1013.42 1013.74 1014.30 1014.54 1014.74 1015.06 1015.30 1015.54 1015.90 1016.30 1016.38 1016.38 1016.30 1016.34 1016.42 1016.54 1016.62 1016.74 1016.94 1017.18 1017.34 1017.46 1017.58 1017.74 1017.90 1018.06 1018.30 1018.38 1018.46 1018.26 1018.42 1018.66 1018.74 1018.94 1018.82 1018.58 1018.50 1018.26 1018.26 1018.62 1018.18 1017.86 1017.86 1017.82 1017.50 1017.42 1017.14 1016.86 1016.66 1016.54 1016.46 1016.42 1016.34 1016.18 1016.06 1015.82 1015.62 1015.42 1015.22 1015.10 1014.98 1014.78 1014.62 1014.46 1014.34 1014.22 1014.18 1014.14
1011.10 1011.30 1011.46 1011.74 1012.10 1012.50 1012.82 1013.34 1013.74 1013.94 1014.22 1014.50 1014.82 1015.14 1015.58 1016.02 1016.14 1015.86 1016.06 1016.26 1016.50 1016.66 1016.70 1016.74 1016.90 1017.06 1017.14 1017.26 1017.34 1017.42 1017.58 1017.82 1017.90 1017.86 1017.86 1018.02 1018.26 1018.50 1018.54 1018.66 1018.90 1018.82 1018.34 1017.98 1018.06 1018.34 1017.98 1017.98 1017.66 1017.82 1017.66 1017.34 1016.74 1016.62 1016.50 1016.42 1016.34 1016.22 1016.02 1015.82 1015.66 1015.50 1015.34 1015.14 1014.98 1014.82 1014.62 1014.46 1014.30 1014.14 1013.98 1013.86 1013.90 1013.82
1011.06 1011.14 1011.38 1011.46 1011.70 1012.10 1012.50 1012.94 1013.26 1013.54 1013.90 1014.18 1014.54 1014.82 1015.14 1015.62 1015.74 1015.46 1015.74 1015.86 1016.06 1016.38 1016.46 1016.70 1016.82 1016.90 1017.02 1017.18 1017.26 1017.30 1017.38 1017.50 1017.58 1017.66 1017.74 1017.86 1017.98 1018.22 1018.26 1018.38 1018.50 1018.66 1018.34 1017.86 1017.94 1018.14 1017.94 1017.90 1017.74 1017.70 1017.78 1017.78 1017.18 1016.50 1016.42 1016.30 1016.18 1015.98 1015.78 1015.62 1015.42 1015.10 1014.98 1014.86 1014.62 1014.38 1014.22 1014.06 1013.90 1013.78 1013.62 1013.54 1013.54 1013.50
1010.74 1011.02 1011.14 1011.18 1011.46 1011.94 1012.30 1012.54 1012.82 1013.18 1013.62 1013.86 1014.14 1014.42 1014.70 1014.70 1014.66 1015.14 1015.66 1015.86 1015.94 1016.10 1016.34 1016.66 1016.78 1016.82 1016.86 1016.94 1016.98 1017.10 1017.22 1017.34 1017.42 1017.50 1017.66 1017.66 1017.70 1017.78 1017.98 1018.18 1018.38 1018.30 1017.98 1017.66 1017.82 1018.02 1018.06 1017.86 1017.74 1017.66 1017.58 1017.62 1017.18 1016.86 1016.22 1016.22 1015.90 1015.78 1015.54 1015.42 1015.18 1014.86 1014.74 1014.50 1014.26 1014.02 1013.74 1013.58 1013.46 1013.38 1013.22 1013.14 1013.02 1013.10
1010.34 1010.58 1010.86 1011.10 1011.26 1011.58 1011.82 1012.14 1012.54 1012.90 1013.34 1013.70 1013.90 1014.02 1014.10 1014.46 1014.82 1015.06 1015.26 1015.54 1015.78 1016.10 1016.34 1016.54 1016.66 1016.74 1016.86 1016.94 1017.02 1017.14 1017.22 1017.22 1017.22 1017.26 1017.38 1017.42 1017.46 1017.50 1017.50 1017.74 1018.06 1018.26 1017.90 1017.46 1017.70 1017.78 1017.98 1017.82 1017.54 1017.50 1017.38 1017.46 1016.86 1016.78 1016.50 1016.06 1015.70 1015.42 1015.26 1015.14 1015.02 1014.74 1014.58 1014.26 1014.02 1013.74 1013.50 1013.22 1013.02 1012.82 1012.66 1012.58 1012.54 1012.50
1009.94 1010.18 1010.54 1010.74 1010.98 1011.22 1011.46 1011.82 1012.26 1012.74 1013.18 1013.50 1013.62 1013.90 1014.26 1014.38 1014.66 1014.94 1015.26 1015.50 1015.82 1016.14 1016.38 1016.50 1016.62 1016.74 1016.86 1016.98 1017.06 1017.14 1017.14 1017.10 1017.14 1017.18 1017.18 1017.26 1017.38 1017.46 1017.54 1017.58 1017.62 1017.62 1017.42 1017.30 1017.42 1017.62 1017.78 1017.74 1017.42 1017.46 1017.30 1017.10 1017.18 1016.74 1016.62 1016.22 1015.38 1015.10 1014.94 1014.82 1014.66 1014.46 1014.18 1013.98 1013.74 1013.42 1013.10 1012.90 1012.62 1012.42 1012.34 1012.26 1012.14 1012.02
1009.42 1009.98 1010.22 1010.46 1010.70 1010.98 1011.26 1011.70 1012.14 1012.54 1012.90 1013.14 1013.54 1013.90 1014.06 1014.38 1014.62 1014.90 1015.30 1015.58 1015.82 1016.14 1016.38 1016.50 1016.66 1016.78 1016.82 1016.90 1017.02 1017.06 1017.02 1017.02 1017.10 1017.14 1017.26 1017.38 1017.42 1017.46 1017.46 1017.50 1017.50 1017.42 1017.34 1017.30 1017.30 1017.42 1017.50 1017.50 1017.26 1017.14 1017.26 1017.30 1017.22 1016.98 1016.38 1015.66 1015.46 1015.14 1014.90 1014.42 1014.34 1014.06 1013.74 1013.54 1013.34 1013.10 1012.86 1012.62 1012.42 1012.18 1012.02 1011.82 1011.54 1011.38
1009.26 1009.58 1009.90 1010.26 1010.66 1011.02 1011.38 1011.66 1012.14 1012.58 1012.90 1013.18 1013.54 1013.78 1014.06 1014.30 1014.62 1014.86 1015.18 1015.46 1015.82 1016.14 1016.26 1016.30 1016.42 1016.54 1016.58 1016.66 1016.66 1016.70 1016.86 1017.02 1017.14 1017.26 1017.26 1017.30 1017.34 1017.34 1017.30 1017.30 1017.26 1017.22 1017.18 1017.10 1017.10 1017.10 1017.22 1017.26 1017.14 1016.98 1017.10 1017.10 1017.10 1016.58 1016.38 1015.86 1015.42 1015.02 1014.78 1014.54 1014.10 1013.62 1013.38 1013.22 1013.06 1012.90 1012.62 1012.38 1012.14 1011.94 1011.74 1011.46 1011.18 1011.02
1009.18 1009.62 1009.98 1010.26 1010.74 1011.22 1011.46 1011.82 1012.18 1012.50 1012.86 1013.18 1013.46 1013.82 1014.06 1014.34 1014.54 1014.78 1015.06 1015.42 1015.58 1015.70 1015.82 1015.98 1016.10 1016.22 1016.46 1016.54 1016.54 1016.70 1016.90 1016.98 1016.86 1016.94 1016.98 1017.02 1017.02 1017.06 1017.06 1016.94 1016.86 1016.90 1016.90 1016.94 1016.90 1016.94 1017.02 1017.06 1017.02 1017.02 1016.94 1016.74 1016.62 1016.42 1016.02 1015.70 1015.22 1014.78 1014.54 1014.34 1013.78 1013.42 1013.14 1012.86 1012.70 1012.50 1012.30 1012.02 1011.78 1011.54 1011.18 1011.02 1010.78 1010.70
1009.42 1009.86 1010.06 1010.42 1010.82 1011.18 1011.46 1011.58 1011.90 1012.38 1012.98 1013.38 1013.78 1013.98 1014.18 1014.38 1014.54 1014.70 1014.78 1014.94 1015.14 1015.34 1015.54 1015.74 1015.94 1016.18 1016.26 1016.42 1016.66 1016.74 1016.78 1016.74 1016.74 1016.82 1016.78 1016.78 1016.74 1016.82 1017.02 1017.14 1017.06 1016.94 1016.74 1016.74 1016.78 1016.78 1016.74 1016.74 1016.70 1016.78 1016.82 1016.38 1016.10 1015.94 1015.62 1015.50 1015.26 1014.78 1014.14 1013.74 1013.66 1013.78 1012.78 1012.54 1012.34 1012.10 1011.82 1011.58 1011.34 1011.06 1010.78 1010.54 1010.26 1010.02
1009.42 1009.94 1010.50 1010.82 1011.10 1011.42 1011.62 1011.90 1012.34 1012.74 1012.98 1013.30 1013.58 1013.90 1014.26 1014.50 1014.70 1014.82 1014.94 1015.06 1015.14 1015.26 1015.38 1015.62 1015.90 1016.18 1016.42 1016.54 1016.46 1016.50 1016.58 1016.54 1016.62 1016.78 1016.70 1016.66 1016.70 1016.90 1017.10 1017.14 1017.02 1017.02 1016.90 1016.74 1016.58 1016.50 1016.54 1016.50 1016.46 1016.42 1016.38 1016.30 1016.14 1015.62 1015.38 1015.26 1014.94 1014.42 1013.98 1013.50 1013.34 1013.02 1012.62 1012.30 1011.90 1011.58 1011.34 1011.18 1011.02 1010.70 1010.38 1010.10 1009.78 1009.42
1009.46 1009.90 1010.22 1010.54 1010.90 1011.22 1011.54 1011.86 1012.26 1012.66 1013.02 1013.38 1013.66 1013.98 1014.26 1014.54 1014.66 1014.78 1014.90 1014.94 1015.10 1015.34 1015.58 1015.58 1015.70 1015.90 1016.22 1016.26 1016.26 1016.30 1016.30 1016.30 1016.38 1016.66 1016.58 1016.70 1016.74 1017.06 1017.22 1017.06 1017.02 1017.02 1016.98 1016.74 1016.66 1016.42 1016.30 1016.18 1016.14 1016.14 1016.02 1015.86 1015.74 1015.62 1015.54 1015.22 1014.30 1013.78 1013.62 1013.26 1013.10 1012.82 1012.38 1011.94 1011.66 1011.30 1010.98 1010.90 1010.66 1010.22 1009.86 1009.54 1009.26 1008.90
1009.02 1009.58 1009.90 1010.14 1010.50 1010.98 1011.34 1011.70 1012.02 1012.38 1012.70 1013.22 1013.74 1014.06 1014.34 1014.50 1014.70 1014.78 1014.90 1014.94 1015.14 1015.46 1015.38 1015.34 1015.54 1015.74 1015.90 1015.94 1016.02 1016.06 1015.98 1016.02 1016.26 1016.42 1016.42 1016.50 1016.74 1016.78 1016.90 1016.94 1016.82 1016.94 1017.18 1016.94 1016.74 1016.54 1016.30 1016.10 1015.94 1015.74 1015.62 1015.42 1015.22 1015.10 1014.98 1014.90 1014.30 1013.58 1013.18 1013.02 1012.94 1012.70 1012.10 1011.66 1011.34 1011.10 1010.94 1010.70 1010.30 1009.94 1009.46 1008.90 1008.50 1008.22
1008.70 1009.22 1009.62 1009.94 1010.26 1010.66 1010.98 1011.34 1011.74 1012.10 1012.46 1012.74 1013.06 1013.58 1013.98 1014.18 1014.34 1014.42 1014.46 1014.58 1014.82 1014.94 1015.02 1015.22 1015.34 1015.46 1015.58 1015.62 1015.78 1015.82 1015.86 1015.82 1015.98 1016.30 1016.54 1016.58 1016.74 1016.74 1016.78 1016.74 1016.70 1016.74 1016.74 1016.66 1016.46 1016.30 1016.30 1016.10 1015.94 1015.66 1015.30 1014.98 1014.74 1014.22 1014.10 1014.02 1014.02 1013.42 1012.98 1012.62 1012.46 1012.38 1011.98 1011.46 1011.18 1010.86 1010.62 1010.26 1009.98 1009.70 1008.98 1008.34 1007.82 1007.46
1008.74 1009.02 1009.42 1009.78 1010.06 1010.38 1010.82 1011.18 1011.58 1011.94 1012.18 1012.42 1012.62 1012.90 1013.26 1013.50 1013.74 1013.86 1013.98 1014.34 1014.58 1014.66 1014.82 1014.94 1015.10 1015.22 1015.34 1015.42 1015.58 1015.70 1015.66 1015.70 1015.86 1016.18 1016.42 1016.50 1016.50 1016.62 1016.82 1016.82 1016.78 1016.66 1016.62 1016.58 1016.38 1016.14 1016.18 1015.98 1015.86 1015.78 1015.42 1014.90 1014.62 1014.06 1013.42 1013.30 1013.38 1013.26 1013.14 1012.50 1012.02 1012.02 1011.74 1011.34 1011.02 1010.66 1010.30 1009.90 1009.54 1009.30 1008.94 1008.18 1007.46 1007.10
1008.38 1008.86 1009.22 1009.54 1009.86 1010.18 1010.46 1010.90 1011.26 1011.62 1011.86 1012.10 1012.38 1012.54 1012.66 1012.98 1013.38 1013.70 1013.90 1014.26 1014.42 1014.46 1014.50 1014.62 1014.70 1014.86 1015.02 1015.18 1015.30 1015.34 1015.46 1015.66 1015.78 1015.86 1015.94 1016.18 1016.34 1016.50 1016.54 1016.58 1016.58 1016.54 1016.46 1016.26 1016.18 1016.06 1016.06 1015.94 1015.66 1015.62 1015.42 1014.86 1014.50 1014.10 1013.26 1012.98 1012.98 1012.94 1012.94 1012.62 1012.02 1011.70 1011.58 1011.26 1010.94 1010.50 1009.94 1009.58 1009.18 1008.86 1008.38 1007.90 1007.10 1006.58
1007.98 1008.50 1008.98 1009.38 1009.62 1009.86 1010.18 1010.62 1011.06 1011.50 1011.78 1011.98 1012.10 1012.42 1012.66 1012.94 1013.26 1013.66 1013.98 1014.18 1014.18 1014.22 1014.38 1014.42 1014.50 1014.82 1014.94 1014.98 1014.94 1015.18 1015.50 1015.66 1015.70 1015.78 1015.90 1016.14 1016.22 1016.38 1016.42 1016.34 1016.22 1016.22 1016.26 1016.14 1016.02 1015.86 1015.82 1015.78 1015.54 1015.30 1015.34 1015.10 1014.66 1013.98 1013.26 1012.54 1012.74 1012.34 1012.26 1012.42 1012.18 1011.58 1011.46 1011.34 1010.86 1010.26 1009.62 1009.14 1008.82 1008.22 1007.90 1007.42 1006.78 1006.26
1007.50 1008.18 1008.58 1008.98 1009.34 1009.62 1010.06 1010.50 1010.86 1011.18 1011.50 1011.74 1011.94 1012.18 1012.58 1012.98 1013.34 1013.66 1013.82 1013.78 1013.86 1013.94 1014.14 1014.34 1014.50 1014.58 1014.66 1014.82 1014.90 1015.02 1015.26 1015.50 1015.62 1015.70 1015.90 1016.02 1016.06 1015.98 1016.06 1016.14 1016.10 1016.02 1016.14 1015.86 1015.70 1015.58 1015.50 1015.38 1015.06 1014.98 1014.98 1015.02 1014.70 1014.06 1013.82 1013.78 1012.98 1012.02 1011.78 1011.90 1012.02 1011.82 1011.26 1010.98 1010.62 1010.02 1009.50 1008.90 1008.22 1007.86 1007.50 1007.02 1006.46 1005.98
1007.46 1007.78 1008.26 1008.66 1009.10 1009.46 1009.82 1010.22 1010.54 1010.82 1011.14 1011.38 1011.66 1012.10 1012.50 1012.82 1013.06 1013.30 1013.50 1013.62 1013.66 1013.78 1013.78 1013.94 1014.14 1014.38 1014.54 1014.66 1014.82 1015.14 1015.38 1015.42 1015.38 1015.46 1015.58 1015.78 1015.98 1016.10 1016.06 1016.06 1016.06 1015.98 1015.98 1015.70 1015.46 1015.22 1015.14 1014.90 1014.70 1014.70 1014.66 1014.46 1014.18 1013.86 1013.62 1013.42 1012.94 1012.26 1011.74 1011.14 1011.18 1011.26 1011.02 1010.82 1010.50 1010.10 1009.54 1008.94 1008.50 1007.90 1006.98 1006.26 1005.70 1005.14
1007.38 1007.86 1008.18 1008.42 1008.90 1009.30 1009.66 1010.02 1010.34 1010.70 1010.94 1011.34 1011.74 1012.22 1012.34 1012.54 1012.90 1013.02 1013.02 1013.14 1013.26 1013.42 1013.62 1013.82 1014.06 1014.22 1014.38 1014.66 1014.94 1015.06 1015.10 1015.34 1015.42 1015.50 1015.66 1015.82 1015.94 1015.98 1015.98 1016.06 1015.90 1015.86 1015.82 1015.46 1015.30 1015.14 1014.82 1014.46 1014.42 1014.50 1014.46 1014.18 1013.86 1013.58 1013.30 1012.78 1011.98 1011.30 1011.02 1010.66 1010.58 1010.62 1010.58 1010.54 1010.34 1010.06 1009.62 1008.94 1008.54 1008.06 1007.30 1006.50 1005.54 1004.66
1007.10 1007.54 1008.02 1008.38 1008.74 1009.14 1009.42 1009.82 1010.30 1010.54 1010.90 1011.34 1011.70 1012.06 1012.50 1012.78 1012.74 1012.82 1013.02 1013.18 1013.18 1013.26 1013.42 1013.66 1013.90 1014.10 1014.30 1014.54 1014.78 1015.06 1015.06 1015.06 1015.26 1015.46 1015.62 1015.70 1015.74 1015.78 1015.82 1015.86 1015.58 1015.50 1015.58 1015.34 1015.06 1014.82 1014.50 1014.30 1014.30 1014.26 1014.02 1013.86 1013.62 1013.34 1012.74 1012.34 1011.98 1011.42 1011.02 1010.58 1010.18 1010.02 1009.98 1009.90 1009.82 1009.66 1009.46 1009.14 1008.74 1008.22 1007.42 1006.50 1006.06 1005.46
1006.82 1007.34 1007.90 1008.34 1008.62 1008.94 1009.30 1009.74 1010.10 1010.38 1010.82 1011.22 1011.58 1011.98 1012.30 1012.50 1012.74 1012.86 1012.82 1012.94 1013.02 1013.06 1013.22 1013.46 1013.74 1013.94 1014.14 1014.46 1014.78 1014.98 1015.06 1015.02 1015.14 1015.26 1015.50 1015.62 1015.54 1015.42 1015.34 1015.30 1015.34 1015.30 1015.30 1015.14 1014.94 1014.78 1014.46 1014.22 1014.10 1013.98 1013.78 1013.62 1013.54 1013.46 1012.98 1012.30 1011.98 1011.54 1011.02 1010.58 1010.22 1009.90 1009.54 1009.30 1009.14 1008.94 1008.74 1008.50 1008.26 1007.98 1007.62 1007.14 1006.54 1005.70
1006.66 1007.26 1007.78 1008.18 1008.54 1008.94 1009.30 1009.66 1010.02 1010.34 1010.66 1011.06 1011.50 1011.90 1012.02 1012.26 1012.46 1012.50 1012.50 1012.62 1012.74 1012.82 1013.02 1013.26 1013.62 1013.86 1014.10 1014.50 1014.86 1015.14 1015.18 1015.02 1015.14 1015.22 1015.26 1015.30 1015.42 1015.38 1015.26 1015.22 1015.22 1015.14 1015.06 1014.94 1014.78 1014.50 1014.22 1014.06 1013.86 1013.90 1013.74 1013.38 1013.30 1013.22 1012.66 1012.22 1011.78 1011.46 1011.14 1010.78 1010.42 1010.02 1009.58 1009.06 1008.58 1008.18 1007.90 1007.70 1007.46 1007.18 1006.94 1006.74 1006.54 1006.10
1006.58 1007.06 1007.62 1008.10 1008.46 1008.86 1009.22 1009.62 1009.94 1010.34 1010.70 1011.10 1011.46 1011.74 1011.98 1012.06 1012.10 1012.30 1012.46 1012.50 1012.54 1012.74 1013.02 1013.30 1013.62 1013.94 1014.34 1014.66 1014.90 1014.98 1015.10 1015.22 1015.26 1015.26 1015.26 1015.34 1015.42 1015.42 1015.30 1015.10 1015.02 1014.94 1014.78 1014.70 1014.74 1014.34 1014.10 1013.98 1013.70 1013.54 1013.42 1013.14 1013.06 1013.06 1012.66 1012.34 1012.02 1011.62 1011.18 1010.90 1010.50 1010.06 1009.66 1009.14 1008.66 1008.06 1007.50 1006.90 1006.66 1006.62 1006.42 1006.22 1005.94 1005.46
Wind_Speed
5 5 6 6 4 4 3 3 3 4 4 4 5 5 7 6 4 3 3 3 4 4 4 3 3 0 1 1 0 1 2 4 4 4 4 4 3 5 7 8 9 10 11 12 12 12 12 13 13 13 13 13 13 12 12 12 11 11 10 10 11 12 11 11 10 10 10 11 11 11 12 12 12 12
5 5 4 4 4 3 4 4 3 4 5 5 5 5 4 5 6 5 5 4 4 3 2 2 3 1 2 1 1 1 2 2 4 3 3 4 4 6 8 8 9 10 11 12 12 13 13 13 13 12 12 12 12 11 11 12 12 11 10 10 11 11 10 10 10 10 10 11 12 12 13 13 13 12
5 6 6 5 5 4 4 3 3 3 4 5 4 4 3 4 5 6 4 3 3 3 4 4 3 2 2 2 1 2 2 2 2 3 3 3 5 7 6 8 9 9 10 10 11 12 12 12 12 12 12 12 12 12 12 12 12 12 10 9 10 11 11 10 10 11 11 11 12 12 13 13 13 14
6 6 7 6 6 5 4 4 3 4 3 3 4 4 5 4 4 5 5 5 5 4 3 2 2 3 2 2 3 3 1 2 4 3 3 4 5 3 3 5 7 8 8 8 9 9 10 10 11 11 11 12 11 11 13 13 12 12 11 10 9 10 10 10 10 10 10 12 12 12 13 14 14 14
6 7 7 7 6 5 6 5 4 3 4 3 3 3 3 4 3 5 5 5 5 3 1 2 2 0 0 2 2 2 2 2 2 2 3 3 2 3 2 3 6 7 8 9 9 9 9 8 8 9 10 10 10 11 11 12 12 12 12 12 11 10 10 10 9 10 11 12 13 13 13 14 13 13
5 6 7 7 6 5 6 6 6 5 4 4 4 3 4 4 4 4 4 5 4 4 0 2 2 2 1 3 1 3 4 4 2 3 3 2 3 2 2 3 3 6 7 8 9 8 8 8 8 8 8 8 9 10 10 11 11 12 12 13 12 12 11 10 10 9 10 12 13 14 13 13 13 13
6 7 7 7 6 4 6 5 5 5 5 4 5 5 4 5 4 5 4 4 4 5 3 2 2 3 3 4 4 4 4 3 2 3 3 2 1 2 2 3 3 6 9 9 9 9 9 9 9 8 8 9 9 9 10 10 10 11 11 11 11 12 12 11 11 10 10 10 12 13 13 13 13 13
8 8 7 7 7 6 7 6 5 5 5 5 5 6 5 5 6 5 5 5 5 4 3 2 5 3 4 4 4 3 2 3 4 4 2 1 3 3 2 2 3 5 8 9 9 9 9 9 9 9 9 9 9 9 8 9 9 10 10 10 11 11 12 12 12 12 11 9 10 11 12 12 12 12
8 8 9 7 7 7 8 7 6 5 7 6 6 6 5 6 5 4 5 5 4 3 4 3 3 2 3 3 3 2 3 2 3 1 2 2 3 4 3 2 3 6 9 9 9 8 8 8 8 8 8 8 9 9 10 10 9 9 9 10 10 11 11 12 12 12 12 12 11 10 10 11 12 12
8 8 9 8 8 8 9 8 7 7 8 6 6 7 6 5 5 6 5 4 4 4 5 4 4 3 4 3 3 1 1 2 3 3 3 2 3 3 4 3 2 2 2 2 3 4 5 5 6 6 6 7 7 8 9 10 10 10 10 10 9 10 10 11 11 11 12 12 12 12 12 9 9 9
8 8 8 8 9 9 10 10 10 8 8 7 8 8 7 6 6 6 5 5 5 5 4 4 5 5 3 2 4 1 0 1 3 3 3 4 2 2 3 3 1 1 3 4 6 7 6 6 5 4 5 6 7 7 8 9 10 9 9 10 10 10 10 10 10 10 11 11 11 11 12 12 10 9
8 8 8 8 9 10 11 11 10 9 9 7 7 7 6 6 7 6 5 4 4 4 5 5 5 4 3 2 1 1 2 3 2 2 2 5 5 4 2 2 4 1 2 4 3 3 5 4 4 5 6 8 8 9 8 9 8 7 7 8 8 9 10 11 10 10 10 11 11 11 11 11 11 11
7 7 8 8 8 10 12 13 12 9 10 8 8 7 7 6 7 6 5 5 5 4 5 5 3 3 3 4 3 3 4 6 3 3 2 3 5 4 4 4 3 3 4 3 3 3 2 1 2 2 4 5 6 6 7 8 8 8 8 9 9 9 8 9 10 11 11 11 11 11 11 11 12 12
7 8 8 7 13 15 16 15 15 14 15 14 11 9 8 8 8 7 6 6 6 5 6 5 4 4 5 4 5 5 1 4 3 2 2 5 5 4 5 3 4 2 2 2 4 4 1 1 2 3 5 5 3 4 4 4 5 7 9 10 11 11 11 11 10 10 11 11 12 12 12 12 12 12
9 7 9 8 11 12 12 12 15 14 16 15 15 14 13 11 10 8 8 7 7 6 6 3 4 5 6 5 1 2 3 2 2 4 5 5 3 4 5 5 3 1 3 2 2 4 1 1 3 4 6 6 5 5 5 7 8 9 10 11 11 11 12 12 12 11 10 11 12 12 12 12 12 12
8 9 10 9 7 9 7 4 8 13 16 16 16 16 14 14 14 13 11 8 5 6 5 4 3 1 4 1 5 4 4 4 2 6 6 6 5 5 4 3 4 0 0 2 3 5 4 2 2 4 6 5 4 6 8 10 11 11 11 11 11 11 11 11 11 11 10 10 11 12 12 12 12 12
9 10 9 8 6 4 10 5 8 9 10 14 17 15 15 13 14 14 14 11 6 6 4 4 1 6 5 5 6 7 5 5 6 5 5 5 4 4 4 5 5 2 2 2 3 5 5 3 4 5 6 5 4 6 8 11 11 11 11 12 12 12 11 11 11 11 11 12 11 11 11 11 11 12
14 13 8 7 6 7 8 8 10 11 10 8 8 8 7 8 11 13 12 10 8 8 7 7 7 9 7 8 6 5 5 6 6 5 5 3 4 4 6 4 4 2 3 3 3 3 5 4 3 5 6 4 5 5 9 12 12 12 13 13 13 13 13 12 12 12 12 12 12 12 12 13 13 12
11 7 8 7 6 9 9 8 11 12 11 7 6 7 7 7 5 5 5 6 6 5 6 8 10 8 6 5 4 5 5 6 4 3 5 5 4 2 1 2 3 4 3 3 2 4 2 1 4 6 6 4 5 5 7 10 12 13 14 13 13 14 14 13 13 14 13 13 13 13 13 13 13 13
9 10 8 8 9 9 10 12 16 15 9 7 7 7 6 5 5 5 2 5 7 7 8 8 6 6 8 7 4 4 4 3 3 3 2 1 2 2 5 5 1 3 1 4 4 3 3 3 5 6 4 3 5 5 5 8 12 13 13 13 13 14 14 14 14 15 15 14 14 14 14 14 14 14
8 9 8 9 8 10 9 11 16 17 14 8 7 7 6 5 4 3 2 7 11 12 8 8 8 8 8 9 7 4 4 4 3 4 4 5 3 3 3 3 2 3 1 2 4 3 5 4 3 5 3 4 6 6 6 5 7 10 11 12 13 14 14 15 15 15 15 15 15 15 15 15 14 15
8 10 15 13 11 11 9 13 16 17 14 9 7 7 6 6 5 4 4 3 4 2 4 4 5 6 7 7 6 7 7 8 8 6 5 3 4 3 3 3 2 3 3 3 4 3 5 3 1 4 3 3 4 4 4 5 6 7 8 11 13 14 15 16 16 14 15 15 15 16 16 15 14 9
7 7 11 17 13 12 11 15 16 17 13 9 7 8 7 7 7 7 8 7 7 5 3 2 2 2 4 3 2 2 3 7 7 5 4 2 3 4 3 3 1 3 3 1 5 3 3 3 3 2 4 5 3 3 4 4 4 4 5 7 8 12 14 15 15 15 15 15 16 16 16 16 12 6
8 9 7 11 16 16 14 15 16 15 15 10 7 6 7 8 9 7 7 7 7 6 6 4 4 3 2 2 2 2 2 2 4 5 4 4 4 4 3 3 3 3 3 1 5 3 2 2 5 1 4 6 6 2 3 5 5 6 7 7 7 10 12 12 11 14 14 14 15 15 16 16 13 6
8 8 9 7 12 15 14 16 16 13 14 11 8 8 8 10 7 9 7 8 9 5 4 4 3 2 1 0 0 0 0 2 3 3 4 4 5 4 3 3 3 5 5 3 5 2 3 1 4 2 3 3 5 6 4 5 6 6 6 7 7 7 7 8 7 9 11 13 14 15 15 15 16 11
8 9 7 7 12 17 17 16 14 14 13 12 7 9 9 9 13 9 7 6 5 4 3 3 3 2 2 1 1 1 2 3 3 2 3 3 4 4 4 5 4 3 4 2 6 3 2 3 5 5 4 4 6 5 8 6 6 7 5 6 6 7 8 9 8 8 8 8 8 9 11 14 14 16
9 8 7 8 15 17 16 14 13 13 13 12 8 10 11 13 14 10 5 6 5 4 4 4 3 3 2 2 2 2 3 3 3 3 3 4 4 4 4 4 4 5 5 4 1 2 3 4 2 5 6 5 7 7 6 7 6 4 6 6 7 7 8 8 8 8 8 8 9 13 14 14 16 17
9 8 8 10 16 16 15 14 13 13 13 10 11 12 12 13 12 6 6 5 5 5 5 5 4 4 3 3 3 3 4 3 4 4 3 3 3 3 3 3 4 5 6 5 4 3 4 5 5 5 5 5 6 7 8 6 8 7 9 7 7 8 8 8 8 9 9 9 8 8 8 9 9 9
9 10 13 14 15 13 13 14 12 10 10 11 12 12 13 12 6 6 6 6 6 6 6 6 4 4 4 4 3 2 2 1 1 2 2 2 3 2 3 3 4 4 3 3 3 3 3 4 5 5 4 4 5 6 6 8 8 8 7 9 8 6 7 8 8 8 9 8 9 9 9 9 10 9
13 14 13 14 13 12 11 10 8 6 7 9 11 11 12 8 6 6 6 6 7 6 5 4 4 4 3 3 3 1 1 2 3 3 3 3 2 2 1 2 2 1 2 2 2 2 3 3 4 4 5 5 5 7 7 8 8 8 8 8 9 8 7 7 7 7 9 9 9 10 10 9 10 10
9 11 11 10 10 8 11 10 9 10 11 9 8 8 7 6 4 5 5 7 6 5 4 4 3 3 3 1 1 2 3 3 2 2 2 1 1 1 1 0 3 3 4 3 2 2 3 3 3 3 4 6 6 6 7 6 8 9 9 8 7 8 8 8 8 9 9 9 9 10 9 10 10 10
9 10 11 12 9 9 8 8 7 6 6 6 7 6 5 5 4 4 4 3 2 2 2 2 2 2 3 3 4 2 3 3 2 3 2 2 1 1 1 1 2 2 3 4 4 3 3 3 3 3 5 5 6 7 6 6 8 9 9 9 8 8 9 9 9 9 8 9 9 10 10 10 11 10
10 9 9 8 8 7 8 7 6 6 6 5 5 6 5 5 5 6 4 4 4 3 4 5 4 4 4 4 3 3 3 3 3 3 2 1 1 1 1 3 3 3 3 4 4 5 5 4 3 4 5 6 7 8 7 8 7 7 7 8 7 8 9 9 9 10 10 9 9 10 11 10 11 11
11 9 9 9 9 8 7 7 7 7 6 6 6 5 5 5 5 6 6 4 4 5 4 3 4 4 4 4 4 3 3 2 2 2 3 2 2 2 2 2 3 2 3 4 4 5 5 5 5 5 4 5 5 7 7 7 9 9 8 7 7 8 9 9 9 10 10 10 11 12 13 13 11 11
9 10 9 10 8 8 8 8 7 7 7 7 7 6 6 6 6 5 3 3 4 3 4 4 3 3 3 3 3 3 3 3 2 2 1 2 2 2 2 2 2 3 3 4 4 3 3 5 5 6 5 4 5 4 9 9 7 9 8 8 6 7 9 9 10 10 10 10 10 13 16 14 13 11
8 8 10 9 9 8 8 8 8 8 8 7 6 5 5 4 3 4 4 4 4 4 4 4 4 4 4 4 3 3 2 2 1 2 2 2 2 1 1 2 3 4 3 4 4 4 3 5 4 5 6 7 6 7 3 10 11 6 8 10 8 6 8 9 10 10 10 10 10 11 14 16 15 13
10 8 8 7 8 9 9 9 8 7 5 5 5 5 4 4 4 4 3 5 4 4 4 4 4 4 4 4 3 3 2 3 2 2 2 1 1 1 2 3 3 3 3 3 3 4 3 4 4 4 5 7 7 8 8 1 7 10 7 9 10 8 8 9 9 11 11 11 12 12 13 13 15 14
10 8 8 8 8 7 5 5 5 5 5 5 5 5 4 3 3 4 4 5 5 4 4 4 3 3 3 3 3 3 2 2 2 2 2 2 2 2 3 2 2 2 3 4 4 4 3 4 4 4 3 6 7 8 10 6 4 6 8 6 9 10 8 8 11 13 13 11 12 12 12 14 14 14
10 9 9 8 8 6 6 6 6 6 6 5 5 4 4 3 3 4 5 5 4 4 4 3 3 3 4 3 3 3 3 2 2 3 3 3 2 2 2 2 3 2 3 4 3 4 3 4 4 4 4 5 6 8 8 9 9 9 8 10 9 8 7 8 12 12 12 13 12 12 12 13 17 20
8 8 8 8 7 6 6 5 5 5 6 5 5 5 5 5 5 5 5 5 4 4 4 4 4 4 3 2 2 2 2 3 4 3 3 2 2 3 2 2 3 3 3 4 4 4 4 5 5 5 6 7 8 8 9 9 10 10 9 10 10 8 7 8 10 13 13 12 12 16 18 18 17 15
8 7 6 7 7 7 7 6 6 5 5 5 5 6 5 5 6 6 5 6 5 5 4 4 4 4 4 3 3 4 4 3 2 3 3 3 3 3 3 3 2 2 3 4 4 5 6 6 7 11 10 7 8 7 6 5 7 7 8 9 8 8 10 9 8 10 12 12 12 15 17 18 19 20
8 8 7 7 7 7 6 7 6 6 6 6 6 6 5 5 5 7 6 7 6 5 5 4 4 3 3 3 3 3 4 4 4 3 3 3 3 3 3 3 3 2 3 4 5 6 7 7 7 6 5 5 4 4 6 7 9 9 9 9 9 9 10 10 10 10 9 10 11 14 15 15 13 17
8 8 8 7 6 6 6 7 7 6 6 6 6 6 5 5 5 6 4 5 5 5 4 3 3 2 2 2 2 3 4 4 4 4 4 4 3 3 3 3 2 3 3 4 5 6 6 6 5 5 5 3 2 3 6 7 8 9 9 10 10 10 10 11 12 13 13 14 14 12 10 11 14 16
7 8 7 8 7 6 7 7 7 6 7 6 6 6 6 6 6 6 5 5 5 4 4 3 3 2 3 3 3 3 3 3 3 4 4 4 4 3 3 3 3 3 3 4 4 5 5 5 4 4 5 5 4 4 6 7 8 9 10 10 10 10 11 10 10 10 11 11 12 13 15 15 14 17
7 7 7 7 6 6 7 6 7 6 6 6 5 5 6 5 6 5 4 4 4 4 3 3 3 2 2 3 4 5 4 3 3 3 2 2 3 3 3 3 2 3 3 2 3 5 5 5 5 3 4 4 3 4 6 6 8 9 9 10 11 11 10 10 11 12 11 10 7 10 13 15 19 22
Wind_Direction
188 189 180 189 189 194 188 186 175 179 172 179 177 179 174 168 160 175 212 246 221 238 211 189 182 329 318 335 64 207 228 242 228 219 229 237 248 256 259 264 272 275 277 276 275 272 269 266 268 270 271 273 274 275 277 279 280 278 275 268 269 269 271 271 268 262 258 258 259 260 263 264 264 264
186 189 178 177 187 174 178 200 182 172 179 168 180 192 182 158 176 178 181 245 211 236 202 229 158 197 228 227 280 263 262 265 240 194 201 214 229 240 248 254 256 259 262 266 268 271 273 273 273 271 269 268 269 269 269 274 275 274 274 273 271 268 264 264 264 260 254 256 253 253 256 260 262 263
180 189 193 182 194 171 188 187 176 179 170 172 167 168 143 186 169 166 154 201 258 200 204 222 232 213 206 195 253 241 247 282 240 207 201 209 221 232 236 240 244 245 246 249 254 257 260 265 267 270 269 268 267 265 266 269 274 278 276 265 267 267 269 268 265 263 259 255 251 251 253 254 256 259
188 187 194 188 193 179 169 177 183 186 189 157 162 162 164 170 156 148 160 192 243 206 225 217 240 206 258 281 269 274 210 210 217 213 220 224 232 243 251 264 268 273 274 270 264 260 259 259 261 262 264 267 268 269 274 276 277 277 280 279 273 270 270 269 268 265 258 258 257 255 251 250 251 254
189 194 197 192 193 169 176 182 179 185 179 163 157 148 144 151 163 156 171 198 245 300 227 256 254 50 311 285 201 257 266 262 235 222 224 220 224 236 249 261 263 267 272 273 273 274 271 265 257 253 254 258 261 264 269 276 279 282 283 283 284 282 277 273 267 263 260 258 257 256 254 251 251 251
198 191 198 196 183 181 190 177 182 179 176 177 162 170 171 167 184 197 158 207 192 235 303 259 267 269 195 249 188 220 239 244 258 271 266 257 247 259 284 295 292 277 267 265 268 276 283 286 285 279 268 261 262 264 272 277 281 283 285 289 289 288 285 281 273 259 253 254 254 254 254 254 255 254
188 197 205 201 179 171 189 191 192 178 181 178 181 181 178 178 191 194 202 158 211 216 232 209 203 220 184 210 235 221 233 248 246 259 252 254 284 286 291 292 293 294 290 290 291 291 292 291 290 290 288 288 287 288 288 286 284 284 286 289 291 292 291 287 280 269 260 257 253 251 250 250 253 256
187 202 203 205 182 175 188 188 189 191 181 180 190 189 188 189 191 197 195 210 209 194 215 189 207 198 188 228 245 240 243 253 248 245 296 298 280 282 263 271 283 292 290 287 282 280 281 286 289 291 292 292 291 290 283 279 281 285 288 288 288 287 287 287 286 283 277 263 250 251 253 250 247 247
195 200 208 201 179 179 193 189 195 182 188 188 188 194 187 193 195 185 197 210 203 195 220 219 222 204 227 234 239 187 211 235 250 248 245 276 281 276 274 266 269 275 277 278 279 271 266 269 274 279 285 290 296 298 298 295 291 284 279 277 277 279 279 280 280 281 282 282 278 264 246 247 249 250
196 202 207 198 182 187 196 200 191 183 190 181 192 195 191 191 186 190 203 202 200 211 231 233 256 210 224 241 232 156 173 227 261 259 236 232 237 256 270 249 247 244 261 282 279 277 261 241 243 249 257 267 265 265 269 275 278 280 278 275 273 271 271 271 274 278 281 284 286 287 286 275 260 250
199 201 204 197 190 194 204 204 193 188 188 187 194 193 189 186 181 189 196 194 197 204 223 227 232 255 242 222 272 60 39 191 210 249 294 274 223 265 274 287 192 246 274 264 268 274 282 293 296 307 289 266 252 249 249 250 250 253 264 270 273 272 270 267 264 263 263 264 266 270 273 274 271 257
199 201 202 199 196 202 205 205 202 186 192 188 196 194 188 184 184 191 190 183 191 203 215 223 222 212 241 220 221 267 294 307 261 192 268 287 287 281 284 300 319 292 229 284 281 248 260 272 289 291 289 293 302 300 296 288 286 277 260 252 253 261 271 278 278 272 268 264 261 259 260 261 264 267
200 204 207 205 203 205 207 202 201 192 190 180 196 195 185 187 192 194 185 184 184 205 215 230 212 229 219 231 227 252 210 216 299 31 355 290 284 296 307 300 247 242 271 274 274 275 183 229 250 258 279 281 287 286 288 294 293 294 296 297 295 287 272 264 272 279 279 275 271 267 263 262 260 259
204 213 212 212 213 207 207 206 207 206 202 200 199 194 187 193 195 197 193 190 194 200 216 221 205 228 244 232 207 232 9 35 58 313 259 257 278 298 280 268 269 195 210 266 285 280 251 211 284 290 288 287 285 285 287 277 283 288 287 287 290 292 293 291 279 268 268 270 270 268 265 263 263 262
214 216 219 221 217 205 209 210 212 212 207 207 209 205 196 193 191 193 198 207 193 197 219 198 173 221 247 259 93 101 128 185 161 255 260 262 270 274 292 290 288 174 198 225 255 278 244 88 300 293 288 287 289 280 272 275 267 262 264 265 265 268 274 276 276 272 265 263 264 263 263 263 263 263
215 217 218 215 206 208 179 232 244 230 218 213 213 212 207 202 202 199 196 198 187 196 207 200 202 229 254 93 149 175 183 197 222 242 234 231 229 244 247 262 274 14 163 212 254 269 287 316 276 280 275 277 270 274 278 279 274 268 263 261 262 262 265 271 278 280 271 258 252 254 257 259 258 259
210 215 211 210 198 157 141 211 251 253 235 220 217 217 213 209 206 211 214 206 191 160 157 93 337 244 206 206 214 198 180 156 210 205 210 214 219 237 252 254 264 263 180 222 250 273 283 286 275 268 267 272 276 279 274 270 271 273 276 281 285 289 291 288 281 275 273 274 271 264 257 250 247 250
205 206 195 201 184 134 160 194 218 235 242 227 217 218 217 218 216 214 216 205 170 153 149 160 219 239 191 221 209 194 156 168 206 210 236 204 227 220 233 243 249 257 174 250 274 270 265 256 248 254 261 258 264 262 269 277 283 286 287 291 294 293 290 287 286 283 279 275 273 274 276 277 274 267
207 183 202 205 177 153 166 191 211 225 228 222 213 208 213 216 200 187 195 191 184 173 181 194 215 209 188 214 213 180 188 203 221 212 247 253 241 228 101 273 236 257 214 197 178 261 254 238 262 260 266 266 264 263 271 275 279 283 287 290 291 290 289 287 285 283 281 279 276 274 273 272 271 270
194 195 190 190 174 168 176 200 215 225 219 213 209 205 193 178 175 193 168 177 192 194 192 204 191 148 183 206 184 191 198 206 204 220 221 184 191 238 262 264 235 264 201 190 207 256 261 246 268 274 276 272 266 265 268 272 272 277 282 285 285 285 285 283 282 281 280 280 279 278 276 274 272 271
187 192 184 188 182 177 181 200 205 211 212 203 202 194 181 168 170 165 142 188 194 198 187 105 116 155 204 236 233 232 240 243 240 228 220 237 195 206 236 247 272 267 249 215 210 241 275 253 255 278 274 274 280 279 274 272 271 273 278 281 282 281 282 281 279 279 281 281 280 279 278 276 276 277
198 199 194 193 192 185 191 191 194 205 205 205 193 191 162 150 170 178 173 172 195 154 114 133 139 177 208 228 240 240 231 211 208 185 212 190 169 215 232 257 233 276 279 236 172 209 256 298 236 278 279 280 247 257 259 264 274 272 269 269 273 278 281 284 285 284 283 282 281 280 278 277 278 280
197 192 193 196 191 188 186 176 190 199 196 201 181 185 167 164 180 192 175 175 176 180 175 155 159 190 194 193 200 220 208 178 191 205 221 149 194 227 222 229 228 280 259 203 170 243 266 288 272 286 301 282 256 254 265 268 275 273 272 275 275 275 279 284 287 284 280 277 277 277 277 276 277 269
205 198 192 195 190 188 177 181 192 196 191 196 187 177 169 159 195 187 177 184 175 178 181 166 185 196 155 172 181 196 174 185 203 209 208 197 198 202 209 207 212 258 262 164 177 233 278 264 278 171 265 296 301 284 274 276 276 281 282 281 275 280 281 282 282 279 274 271 272 272 273 274 271 266
197 195 201 191 182 176 176 189 195 187 192 193 185 182 175 190 177 148 171 181 184 174 173 166 175 176 183 156 13 17 296 227 211 202 194 194 194 183 186 209 217 245 250 243 168 211 256 272 286 283 268 228 261 290 277 286 282 275 276 276 279 282 282 281 282 284 283 276 270 266 267 266 265 256
194 199 173 180 167 175 186 194 185 187 186 190 173 195 184 140 138 160 162 168 167 165 164 175 178 190 198 218 228 236 243 239 230 205 188 188 194 202 203 189 203 231 256 200 161 200 246 267 264 275 273 271 273 266 293 283 274 280 269 270 273 276 281 284 282 279 277 276 277 272 270 264 259 255
192 172 168 171 175 181 190 186 178 174 171 175 184 157 145 157 157 148 153 154 159 161 174 165 182 193 197 210 207 215 232 232 218 199 192 191 199 215 227 225 221 237 258 283 243 223 210 254 246 265 277 278 286 287 272 287 290 271 276 272 276 277 272 275 274 274 271 272 270 269 267 263 261 259
175 163 167 176 181 188 182 169 165 161 164 176 154 150 159 154 155 144 142 154 156 159 160 172 182 197 200 200 206 213 214 206 194 195 191 202 213 227 241 234 239 238 256 262 263 222 217 246 271 262 258 274 281 285 288 268 269 279 290 288 280 275 271 268 271 274 277 276 278 276 276 277 266 261
171 168 163 160 166 167 164 159 146 150 166 151 154 158 160 156 152 153 151 154 153 164 177 183 184 187 193 194 197 181 181 204 162 185 210 204 221 228 240 242 238 242 248 258 256 246 228 238 257 274 274 253 256 265 270 280 289 289 287 297 293 279 282 280 277 275 275 275 276 273 270 271 272 266
147 148 146 147 143 142 143 137 148 157 164 155 150 152 156 162 157 156 154 154 165 176 177 176 182 189 176 189 201 169 177 188 200 192 192 191 192 185 244 310 280 251 236 244 273 259 243 235 242 253 266 262 250 267 271 285 286 284 285 278 280 292 274 273 279 278 276 274 275 276 274 271 271 272
127 133 137 144 144 136 136 125 121 122 129 122 132 146 154 158 155 160 165 168 169 172 166 176 177 172 175 118 156 200 186 204 210 204 201 207 257 91 65 4 286 301 302 307 287 266 259 254 247 225 256 275 277 264 274 276 280 285 282 277 287 289 290 288 279 279 280 280 279 275 274 273 270 260
127 124 116 112 114 121 117 118 120 129 138 139 140 140 141 149 149 144 139 121 123 132 152 153 142 141 151 189 198 182 195 202 183 185 186 183 187 94 106 283 260 275 295 301 304 292 272 266 271 256 241 257 272 279 279 272 270 274 279 283 284 281 285 289 290 284 276 283 285 279 271 273 275 272
123 122 127 124 126 134 141 139 140 138 136 131 132 135 141 146 152 160 168 174 176 169 168 178 172 173 178 190 192 195 198 200 175 168 162 162 186 142 162 237 264 272 286 292 294 298 303 301 270 267 267 262 248 255 270 285 275 268 271 281 290 287 289 286 291 292 297 293 283 288 285 280 280 272
138 143 144 148 146 147 149 152 155 157 153 146 151 155 156 156 163 177 189 187 169 179 185 170 173 178 182 188 190 198 205 180 166 162 174 163 161 174 202 234 253 246 250 268 279 286 299 298 307 296 279 260 247 239 238 251 270 280 277 282 282 285 283 287 285 288 291 292 295 295 294 291 284 273
142 149 150 153 152 153 156 160 164 165 165 169 169 166 167 179 180 180 177 174 165 170 175 176 181 177 187 198 190 205 204 193 153 137 149 146 160 199 203 232 261 270 271 281 285 284 293 294 307 306 297 290 291 253 219 223 256 272 288 281 273 279 287 291 296 296 295 292 293 297 301 294 283 279
147 148 149 152 156 158 160 165 166 170 177 177 172 160 167 178 183 180 194 170 172 175 180 183 182 186 194 200 193 194 185 174 155 149 157 177 176 173 188 233 251 265 266 269 282 290 296 292 300 308 313 313 311 305 286 206 213 256 283 291 287 282 285 290 294 295 293 291 293 296 299 299 298 295
147 153 155 155 158 164 167 167 170 175 163 158 159 165 162 173 184 195 172 152 175 186 186 182 190 188 190 183 176 168 158 167 179 178 178 144 122 173 237 239 239 250 274 276 276 287 280 288 288 295 306 312 313 305 289 185 229 234 260 278 289 293 295 300 297 300 298 296 297 295 294 292 291 289
150 152 155 161 164 165 146 142 143 153 162 164 158 160 173 168 159 165 153 171 184 179 175 186 184 185 189 170 152 144 152 170 160 168 162 158 190 208 222 256 278 281 285 283 284 286 280 276 282 285 292 302 309 303 310 308 301 256 216 241 283 293 298 293 304 308 306 299 292 289 292 294 289 295
148 156 156 160 162 153 147 151 156 157 159 159 159 162 155 150 154 152 169 182 173 169 156 160 162 159 157 155 160 155 165 163 182 182 175 187 204 225 242 246 273 270 281 293 289 285 282 280 282 288 284 289 286 292 297 299 288 289 292 278 275 281 281 300 309 308 310 306 301 299 289 286 290 289
146 152 153 153 152 151 149 147 155 151 155 162 153 150 152 158 159 164 169 166 162 154 151 149 143 138 140 150 145 132 151 183 182 175 182 185 200 220 233 244 256 277 280 283 296 296 293 287 288 301 304 286 279 279 284 279 277 273 269 274 237 218 289 303 300 309 308 300 303 311 311 313 313 316
145 150 152 152 143 150 149 156 152 153 148 144 140 154 157 144 157 172 169 160 152 146 145 143 145 159 160 152 162 171 177 175 180 182 187 199 208 217 224 233 255 247 280 289 286 290 288 288 297 302 292 281 282 277 260 259 287 302 306 303 307 274 254 252 277 300 301 301 306 309 309 314 317 318
153 152 140 139 148 153 149 143 147 144 139 143 149 148 151 165 171 155 153 151 144 145 140 149 154 164 161 154 160 169 188 182 185 188 193 199 206 215 216 222 252 260 260 280 288 288 288 290 302 300 294 297 305 318 306 305 305 308 304 307 307 304 302 287 269 263 274 292 301 303 304 308 311 313
150 142 138 143 137 139 138 138 141 142 143 143 145 148 151 149 147 154 155 156 158 154 155 148 148 158 162 159 166 181 190 187 184 187 194 205 213 228 233 234 242 262 263 272 277 278 285 293 300 311 308 300 295 282 287 298 299 297 302 314 317 316 308 301 294 290 282 275 269 266 277 294 311 309
141 131 133 135 137 139 137 137 138 141 143 148 147 151 155 156 163 169 165 160 161 164 148 145 145 158 177 176 167 178 205 195 183 190 198 202 214 225 232 233 240 257 267 272 287 290 297 303 308 317 317 312 310 299 293 304 308 313 313 309 310 312 310 313 307 292 274 262 275 281 278 284 288 293
127 128 132 136 137 134 134 136 136 137 139 138 144 153 162 168 165 161 164 161 158 143 140 151 160 173 168 165 169 190 200 195 196 206 205 213 221 226 226 234 240 253 268 280 299 300 310 311 306 304 289 295 284 279 288 295 304 308 309 313 314 314 314 316 316 314 312 308 288 303 310 312 318 320